DW8293 Weather Reports


Display with metric or nautical units.
time (UTC)temp
F
wind
direction
speed
MPH
gust
MPH
rain 1hr
in
rain 24hr
in
rain mn
in
humidity
%
barometer
mb
20260504040003 43 155 1.0 2.0 0.00 0.00 0.00 98 1001.0
20260504035403 43 146 1.0 4.0 0.00 0.00 0.00 98 1000.9
20260504034503 43 136 2.0 4.0 0.00 0.00 0.00 98 1000.9
20260504033603 43 151 2.0 4.0 0.00 0.00 0.00 97 1000.9
20260504032724 43 147 2.0 4.0 0.00 0.00 0.00 97 1001.0
20260504031803 43 148 2.0 4.0 0.00 0.00 0.00 97 1001.1
20260504030903 43 135 1.0 4.0 0.00 0.00 0.00 96 1001.0
20260504030003 43 135 2.0 4.0 0.00 0.00 0.00 96 1001.3
20260504025425 43 135 1.0 2.0 0.00 0.00 0.00 95 1001.6
20260504024503 43 135 0.0 4.0 0.00 0.01 0.00 96 1001.6
20260504023604 43 135 2.0 2.0 0.00 0.01 0.00 95 1001.5
20260504022703 43 135 1.0 2.0 0.00 0.02 0.00 95 1001.7
20260504021803 43 135 0.0 2.0 0.00 0.04 0.00 95 1001.7
20260504020903 43 135 0.0 2.0 0.00 0.04 0.00 95 1001.8
20260504020003 43 135 1.0 2.0 0.00 0.04 0.00 95 1002.0
20260504015403 43 135 2.0 4.0 0.00 0.04 0.00 94 1001.8
20260504014503 43 150 2.0 2.0 0.00 0.04 0.00 94 1001.9
20260504013626 43 157 2.0 4.0 0.00 0.04 0.00 94 1002.0
20260504012703 44 185 2.0 4.0 0.00 0.04 0.00 94 1002.3
20260504011804 44 193 3.0 4.0 0.00 0.04 0.00 94 1002.3
20260504010903 44 202 1.0 4.0 0.00 0.04 0.00 94 1002.4
20260504010004 44 225 2.0 4.0 0.00 0.04 0.00 94 1002.3
20260504005403 43 232 3.0 4.0 0.00 0.04 0.00 93 1002.4
20260504004503 44 254 2.0 6.0 0.00 0.04 0.00 93 1002.6
20260504003604 43 227 3.0 9.0 0.00 0.04 0.00 94 1002.7
20260504002703 44 231 4.0 6.0 0.00 0.04 0.00 93 1002.7
20260504001803 44 188 3.0 6.0 0.00 0.05 0.00 93 1002.6
20260504000924 44 165 3.0 6.0 0.00 0.05 0.00 93 1003.0
20260504000003 44 203 4.0 6.0 0.00 0.05 0.00 92 1002.8
20260503235403 44 240 2.0 6.0 0.00 0.05 0.00 92 1003.1
20260503234505 44 215 4.0 6.0 0.00 0.05 0.00 92 1003.4
20260503233603 44 212 2.0 7.0 0.00 0.05 0.00 92 1003.2
20260503232703 44 185 2.0 4.0 0.00 0.06 0.00 92 1003.4
20260503231804 44 157 2.0 4.0 0.00 0.06 0.00 92 1003.3
20260503230903 44 159 2.0 4.0 0.00 0.07 0.00 92 1003.4
20260503230003 44 180 1.0 2.0 0.00 0.07 0.00 91 1003.5
20260503225403 44 166 2.0 2.0 0.00 0.07 0.00 91 1003.5
20260503224525 44 149 2.0 2.0 0.00 0.08 0.00 91 1003.5
20260503223603 44 157 0.0 4.0 0.00 0.08 0.00 91 1003.6
20260503222726 44 167 2.0 4.0 0.00 0.08 0.00 91 1003.7
20260503221803 44 173 2.0 4.0 0.00 0.08 0.00 91 1003.6
20260503220903 44 172 3.0 7.0 0.00 0.08 0.00 90 1003.7
20260503220024 44 176 2.0 4.0 0.00 0.08 0.00 90 1004.0
20260503215426 44 157 2.0 2.0 0.00 0.08 0.08 90 1003.9
20260503214504 44 157 1.0 2.0 0.00 0.08 0.08 90 1004.1
20260503213603 44 157 0.0 2.0 0.00 0.08 0.08 90 1004.2
20260503212704 44 159 2.0 4.0 0.00 0.08 0.08 89 1004.2
20260503211803 44 170 2.0 4.0 0.00 0.08 0.08 89 1004.6
20260503210924 44 191 2.0 6.0 0.00 0.08 0.08 89 1004.6
20260503210006 44 144 1.0 4.0 0.00 0.08 0.08 89 1004.4
20260503205403 44 147 2.0 4.0 0.00 0.08 0.08 89 1004.6
20260503204503 44 150 2.0 4.0 0.00 0.08 0.08 89 1004.5
20260503203604 44 140 2.0 4.0 0.00 0.09 0.08 89 1004.7
20260503202703 44 140 2.0 4.0 0.00 0.09 0.08 89 1004.8
20260503201805 44 135 2.0 4.0 0.00 0.09 0.08 88 1004.8
20260503200903 44 135 2.0 4.0 0.00 0.09 0.08 88 1004.7
20260503200003 44 137 2.0 4.0 0.00 0.09 0.08 87 1004.8
20260503195403 44 137 2.0 4.0 0.00 0.09 0.08 87 1004.7
20260503194504 44 132 2.0 4.0 0.00 0.09 0.08 86 1004.8
20260503193603 44 139 2.0 4.0 0.00 0.09 0.08 85 1005.1
20260503192703 44 131 1.0 4.0 0.00 0.09 0.08 85 1004.9
20260503191805 44 132 1.0 4.0 0.00 0.09 0.08 85 1004.9
20260503190905 45 147 1.0 4.0 0.00 0.09 0.08 84 1005.1
20260503190025 45 147 3.0 4.0 0.00 0.11 0.08 83 1005.2
20260503185403 45 149 2.0 4.0 0.00 0.11 0.08 83 1005.1
20260503184503 45 156 2.0 4.0 0.00 0.12 0.08 83 1005.1
20260503183604 45 174 2.0 4.0 0.00 0.13 0.08 82 1005.4
20260503182704 45 137 2.0 4.0 0.00 0.13 0.08 82 1005.1
20260503181803 45 147 2.0 4.0 0.00 0.13 0.08 82 1005.3
20260503180926 45 146 1.0 4.0 0.00 0.13 0.08 82 1005.1
20260503180005 45 140 2.0 4.0 0.00 0.13 0.08 81 1005.3
20260503175426 45 147 2.0 4.0 0.00 0.13 0.08 81 1005.3
20260503174505 46 142 2.0 4.0 0.00 0.13 0.08 80 1005.4
20260503173603 45 148 2.0 6.0 0.00 0.13 0.08 80 1005.2
20260503172724 45 139 2.0 6.0 0.00 0.13 0.08 80 1005.2
20260503171803 45 141 2.0 6.0 0.00 0.13 0.08 80 1005.5
20260503170903 46 135 2.0 6.0 0.00 0.13 0.08 80 1005.4
20260503150903 46 154 3.0 6.0 0.00 0.13 0.08 77 1006.3
20260503130903 46 51 1.0 4.0 0.00 0.13 0.08 71 1006.9
20260503080903 44 30 2.0 6.0 0.00 0.13 0.08 77 1007.9
20260503072703 43 20 1.0 4.0 0.00 0.13 0.08 82 1008.0
20260503071803 43 21 2.0 4.0 0.00 0.13 0.08 83 1007.6
20260503070903 43 13 1.0 4.0 0.00 0.13 0.08 84 1007.8
20260503054505 41 24 1.0 4.0 0.00 0.13 0.08 86 1007.6
20260503053603 41 17 2.0 4.0 0.00 0.13 0.08 87 1007.9
20260503052703 41 32 2.0 4.0 0.00 0.13 0.08 87 1007.5
20260503051805 41 38 1.0 6.0 0.00 0.13 0.08 87 1007.6
20260503050903 40 49 3.0 8.0 0.00 0.13 0.08 86 1007.2
20260503050003 40 52 2.0 7.0 0.00 0.13 0.08 86 1007.4
20260503045424 40 36 2.0 7.0 0.00 0.13 0.08 86 1007.3
20260503044503 40 25 3.0 9.0 0.00 0.13 0.08 85 1007.4
20260503043603 40 22 6.0 11.0 0.00 0.13 0.08 85 1007.6
20260503042703 40 23 2.0 9.0 0.00 0.13 0.08 88 1007.5
20260503041804 41 17 4.0 9.0 0.00 0.13 0.08 88 1007.5
20260503040926 41 3 3.0 8.0 0.00 0.13 0.08 86 1007.4